COSMOS 1190

Satellite information

Favourite Embed

Satellite Type and Status

PAYLOADIN ORBIT

Key statistics

Satellite COSMOS 1190 at a glance.

Uptime

16602

Days in orbit

Revolutions

≈ 14.3

Per day

Orbit

LEO

Low Earth Orbit

Inclination

74.0

Latest

Satellite identification and parameters

Extended collection of information and parameters for COSMOS 1190.

Object identification

Identified? True

Debris? False

Object name: COSMOS 1190

International designator: 1980-056A

Object number (NORAD): 11869

Object ID (CCSDS): 11869

Country: COMMONWEALTH OF INDEPENDENT STATES (CIS)

Current information (Y/N): Y

RCS size: LARGE

Orbital parameters

Period: 100.378 minutes

Inclination: 74.047 deg

SMA: 7154.596 km

Apoapsis: 787.093 km

Periapsis: 765.829 km

RAAN: 18.2387 deg

Eccentricy: 0.00148601

Argument of periapsis: 267.2384 deg

Mean anomaly: 92.7067 deg

Mean motion: 14.34580983 rev/day

Mean motion (dot): 0.00000262 rev/day2

B* drag term: 0.00010176153 1/REarth

Two-line elements (TLE)

Creation date: Dec. 12, 2025, 10:14 a.m.

Reference frame: TEME

Reference center: EARTH

Epoch: Dec. 12, 2025, 6:02 a.m. UTC

TLE line 0: 0 COSMOS 1190

TLE line 1: 1 11869U 80056A 25346.25207928 .00000262 00000-0 10176-3 0 9997

TLE line 2: 2 11869 74.0470 18.2387 0014860 267.2384 92.7067 14.34580983353488

Live tracking on map

Real-time ground track for satellite COSMOS 1190.

In-orbit conjunctions

A list of the most updated potential collisions computed for object COSMOS 1190.

Target Orbit TCA Probability of collision Miss distance Type
SL-16 DEB LEO 2025-11-04 22:30:24 0.0002772584 103.0 (m) DEBRIS
FENGYUN 1C DEB SSO 2025-11-03 17:50:45 0.0003774455 281.0 (m) DEBRIS
METEOR 1-16 DEB LEO 2025-07-03 01:25:06 0.0001347073 453.0 (m) DEBRIS
CZ-2D DEB SSO 2025-03-04 19:51:23 0.001357253 51.0 (m) DEBRIS
COSMOS 2251 DEB LEO 2025-02-19 01:58:49 0.0001823043 406.0 (m) DEBRIS

Associated space launch

Military communications satellite

COSMOS 1190 was lifted into orbit during the mission ‘Kosmos-3M | Strela-2M 23’, on board a Kosmos-3M space rocket.

The launch took place on July 1, 1980, 7:12 a.m. from 132/2.

For more information about the launch, click the button.

Launch to space Kosmos-3M | Strela-2M 23
Kosmos-3M | Strela-2M 23

Agency: N/A

Status: Launch Successful

Launch date: July 1, 1980, 7:12 a.m. UTC

Rocket: Kosmos-3M

Launch pad: 132/2

Location: Plesetsk Cosmodrome, Russian Federation

...

Latest news about this satellite

There are no fresh news available about this satellite. Check back as we update our databases every day.


Newsletter sign-up

Weekly statistics, charts and insights to help you stay on top of the space industry.